When you browse on this site, cookies collect data to enhance your experience and personalize the content and advertising you see.
Visit our Privacy Policy to learn more. By continuing to use the site, you agree to this use of cookies and data.
  • In Österreich
  • Länderverzeichnis
  • Für 7 Tage
  • Wassertemperatur
  • Wetterkarte
  • News
  • Widgets
  • user-avatar
    Anmelden

    Stündliche Wetter Novorodnikovka

    Heute, 27 Januar, Montag

    Zeit Temperatur Niederschläge Wind Luftdruck Luftfeuchtigkeit
    00:00 -13°C° 0 mm 5 m/S 737 mmHg 91%
    01:00 -15°C° 0 mm 5 m/S 738 mmHg 91%
    02:00 -15°C° 0 mm 5 m/S 738 mmHg 93%
    03:00 -15°C° 0 mm 4 m/S 738 mmHg 94%
    04:00 -15°C° 0 mm 4 m/S 739 mmHg 95%
    05:00 -15°C° 0 mm 4 m/S 739 mmHg 95%
    06:00 -15°C° 0 mm 4 m/S 739 mmHg 95%
    07:00 -14°C° 0 mm 3 m/S 739 mmHg 95%
    08:00 -14°C° 0.1 mm 4 m/S 738 mmHg 95%
    09:00 -13°C° 0.1 mm 5 m/S 738 mmHg 95%
    10:00 -12°C° 0.1 mm 6 m/S 738 mmHg 94%
    11:00 -12°C° 0.5 mm 7 m/S 737 mmHg 94%
    12:00 -11°C° 0.5 mm 8 m/S 736 mmHg 94%
    13:00 -10°C° 0.5 mm 9 m/S 735 mmHg 94%
    14:00 -9°C° 0.5 mm 9 m/S 734 mmHg 94%
    15:00 -8°C° 0.5 mm 10 m/S 734 mmHg 94%
    16:00 -5°C° 0.5 mm 10 m/S 734 mmHg 94%
    17:00 -8°C° 0.1 mm 10 m/S 734 mmHg 90%
    18:00 -9°C° 0.1 mm 10 m/S 735 mmHg 86%
    19:00 -10°C° 0.1 mm 10 m/S 735 mmHg 82%
    20:00 -13°C° 0 mm 10 m/S 737 mmHg 83%
    21:00 -14°C° 0 mm 9 m/S 738 mmHg 84%
    22:00 -16°C° 0 mm 9 m/S 740 mmHg 85%
    23:00 -17°C° 0 mm 8 m/S 741 mmHg 87%

    Morgen, 28 Januar, Dienstag

    Zeit Temperatur Niederschläge Wind Luftdruck Luftfeuchtigkeit
    00:00 -18°C° 0 mm 7 m/S 742 mmHg 88%
    01:00 -18°C° 0 mm 6 m/S 743 mmHg 90%
    02:00 -20°C° 0 mm 5 m/S 744 mmHg 91%
    03:00 -21°C° 0 mm 5 m/S 745 mmHg 92%
    04:00 -22°C° 0 mm 4 m/S 746 mmHg 94%
    05:00 -22°C° 0 mm 3 m/S 747 mmHg 95%
    06:00 -23°C° 0 mm 3 m/S 748 mmHg 96%
    07:00 -23°C° 0 mm 2 m/S 748 mmHg 97%
    08:00 -23°C° 0 mm 2 m/S 749 mmHg 96%
    09:00 -23°C° 0 mm 2 m/S 750 mmHg 96%
    10:00 -20°C° 0 mm 1 m/S 751 mmHg 95%
    11:00 -19°C° 0 mm 1 m/S 751 mmHg 93%
    12:00 -18°C° 0 mm 1 m/S 751 mmHg 91%
    13:00 -16°C° 0 mm 0 m/S 752 mmHg 89%
    14:00 -16°C° 0 mm 0 m/S 752 mmHg 89%
    15:00 -16°C° 0 mm 0 m/S 753 mmHg 89%
    16:00 -17°C° 0 mm 0 m/S 753 mmHg 90%
    17:00 -17°C° 0 mm 0 m/S 753 mmHg 89%
    18:00 -17°C° 0 mm 1 m/S 753 mmHg 88%
    19:00 -17°C° 0 mm 1 m/S 754 mmHg 88%
    20:00 -17°C° 0 mm 1 m/S 754 mmHg 88%
    21:00 -19°C° 0 mm 2 m/S 754 mmHg 89%
    22:00 -19°C° 0 mm 2 m/S 754 mmHg 90%
    23:00 -19°C° 0 mm 2 m/S 754 mmHg 90%

    übermorgen, 29 Januar, Mittwoch

    Zeit Temperatur Niederschläge Wind Luftdruck Luftfeuchtigkeit
    00:00 -20°C° 0 mm 2 m/S 754 mmHg 90%
    01:00 -21°C° 0 mm 2 m/S 754 mmHg 90%
    02:00 -20°C° 0 mm 2 m/S 754 mmHg 89%
    03:00 -22°C° 0 mm 3 m/S 754 mmHg 89%
    04:00 -22°C° 0 mm 3 m/S 754 mmHg 89%
    05:00 -22°C° 0 mm 3 m/S 754 mmHg 88%
    06:00 -23°C° 0 mm 3 m/S 754 mmHg 88%
    07:00 -23°C° 0 mm 3 m/S 754 mmHg 87%
    08:00 -22°C° 0 mm 3 m/S 754 mmHg 86%
    09:00 -23°C° 0 mm 4 m/S 754 mmHg 85%
    10:00 -22°C° 0 mm 4 m/S 754 mmHg 84%
    11:00 -20°C° 0 mm 4 m/S 754 mmHg 83%
    12:00 -19°C° 0 mm 4 m/S 754 mmHg 83%
    13:00 -18°C° 0 mm 4 m/S 753 mmHg 82%
    14:00 -17°C° 0 mm 4 m/S 753 mmHg 83%
    15:00 -17°C° 0 mm 4 m/S 753 mmHg 83%
    16:00 -17°C° 0 mm 4 m/S 753 mmHg 84%
    17:00 -17°C° 0 mm 4 m/S 753 mmHg 85%
    18:00 -17°C° 0 mm 4 m/S 752 mmHg 85%
    19:00 -17°C° 0 mm 4 m/S 752 mmHg 86%
    20:00 -18°C° 0 mm 5 m/S 752 mmHg 87%
    21:00 -18°C° 0 mm 5 m/S 752 mmHg 87%
    22:00 -18°C° 0 mm 5 m/S 752 mmHg 88%
    23:00 -17°C° 0 mm 5 m/S 752 mmHg 90%

    30 Januar, Donnerstag

    Zeit Temperatur Niederschläge Wind Luftdruck Luftfeuchtigkeit
    00:00 -17°C° 0 mm 5 m/S 752 mmHg 92%
    01:00 -17°C° 0 mm 5 m/S 751 mmHg 94%
    02:00 -17°C° 0 mm 5 m/S 751 mmHg 94%
    03:00 -15°C° 0 mm 5 m/S 751 mmHg 94%
    04:00 -15°C° 0 mm 5 m/S 751 mmHg 94%
    05:00 -15°C° 0.1 mm 5 m/S 751 mmHg 94%
    06:00 -14°C° 0.1 mm 5 m/S 751 mmHg 94%
    07:00 -14°C° 0.1 mm 5 m/S 750 mmHg 94%
    08:00 -14°C° 0.2 mm 5 m/S 751 mmHg 94%
    09:00 -13°C° 0.2 mm 5 m/S 751 mmHg 94%
    10:00 -13°C° 0.2 mm 5 m/S 751 mmHg 94%
    11:00 -13°C° 0.2 mm 5 m/S 751 mmHg 94%
    12:00 -12°C° 0.2 mm 5 m/S 750 mmHg 94%
    13:00 -12°C° 0.2 mm 6 m/S 750 mmHg 94%
    14:00 -12°C° 0.1 mm 6 m/S 750 mmHg 93%
    15:00 -12°C° 0.1 mm 6 m/S 750 mmHg 93%
    16:00 -12°C° 0.1 mm 6 m/S 750 mmHg 92%
    17:00 -12°C° 0 mm 6 m/S 750 mmHg 91%
    18:00 -14°C° 0 mm 6 m/S 750 mmHg 89%
    19:00 -14°C° 0 mm 6 m/S 750 mmHg 87%
    20:00 -14°C° 0 mm 6 m/S 749 mmHg 88%
    21:00 -14°C° 0 mm 5 m/S 749 mmHg 88%
    22:00 -14°C° 0 mm 5 m/S 749 mmHg 88%
    23:00 -14°C° 0 mm 5 m/S 749 mmHg 88%

    31 Januar, Freitag

    Zeit Temperatur Niederschläge Wind Luftdruck Luftfeuchtigkeit
    00:00 -14°C° 0 mm 5 m/S 749 mmHg 88%
    01:00 -15°C° 0 mm 5 m/S 749 mmHg 88%
    02:00 -15°C° 0 mm 5 m/S 749 mmHg 88%
    03:00 -17°C° 0 mm 5 m/S 749 mmHg 88%
    04:00 -17°C° 0 mm 5 m/S 748 mmHg 89%
    05:00 -17°C° 0 mm 5 m/S 748 mmHg 88%
    06:00 -17°C° 0 mm 5 m/S 748 mmHg 88%
    07:00 -17°C° 0 mm 5 m/S 748 mmHg 88%
    08:00 -17°C° 0 mm 5 m/S 748 mmHg 88%
    09:00 -17°C° 0 mm 5 m/S 748 mmHg 87%
    10:00 -17°C° 0 mm 5 m/S 748 mmHg 87%
    11:00 -15°C° 0 mm 5 m/S 747 mmHg 88%
    12:00 -15°C° 0 mm 5 m/S 747 mmHg 88%
    13:00 -15°C° 0 mm 6 m/S 747 mmHg 88%
    14:00 -15°C° 0 mm 6 m/S 746 mmHg 89%
    15:00 -14°C° 0 mm 6 m/S 746 mmHg 89%
    16:00 -14°C° 0 mm 6 m/S 745 mmHg 89%
    17:00 -14°C° 0 mm 6 m/S 745 mmHg 90%
    18:00 -14°C° 0 mm 6 m/S 745 mmHg 90%
    19:00 -14°C° 0 mm 6 m/S 745 mmHg 91%
    20:00 -14°C° 0 mm 6 m/S 745 mmHg 91%
    21:00 -14°C° 0 mm 6 m/S 744 mmHg 91%
    22:00 -14°C° 0 mm 6 m/S 744 mmHg 92%
    23:00 -13°C° 0 mm 5 m/S 744 mmHg 92%

    1 Februar, Samstag

    Zeit Temperatur Niederschläge Wind Luftdruck Luftfeuchtigkeit
    00:00 -13°C° 0 mm 5 m/S 744 mmHg 92%
    01:00 -13°C° 0 mm 5 m/S 744 mmHg 93%
    02:00 -13°C° 0 mm 5 m/S 744 mmHg 93%
    03:00 -13°C° 0 mm 5 m/S 744 mmHg 93%
    04:00 -13°C° 0 mm 5 m/S 744 mmHg 93%
    05:00 -13°C° 0.1 mm 5 m/S 744 mmHg 93%
    06:00 -14°C° 0.1 mm 5 m/S 743 mmHg 93%
    07:00 -14°C° 0.1 mm 5 m/S 743 mmHg 93%
    08:00 -14°C° 0.2 mm 5 m/S 743 mmHg 93%
    09:00 -14°C° 0.2 mm 5 m/S 743 mmHg 93%
    10:00 -14°C° 0.2 mm 5 m/S 743 mmHg 93%
    11:00 -12°C° 0.3 mm 4 m/S 743 mmHg 94%
    12:00 -12°C° 0.3 mm 4 m/S 743 mmHg 94%
    13:00 -11°C° 0.3 mm 4 m/S 743 mmHg 95%
    14:00 -10°C° 0.5 mm 3 m/S 743 mmHg 95%
    15:00 -10°C° 0.5 mm 3 m/S 743 mmHg 95%
    16:00 -9°C° 0.5 mm 3 m/S 743 mmHg 95%
    17:00 -8°C° 0.4 mm 2 m/S 743 mmHg 95%
    18:00 -8°C° 0.4 mm 2 m/S 743 mmHg 95%
    19:00 -8°C° 0.4 mm 2 m/S 743 mmHg 96%
    20:00 -8°C° 0.5 mm 2 m/S 743 mmHg 96%
    21:00 -7°C° 0.5 mm 2 m/S 742 mmHg 96%
    22:00 -6°C° 0.5 mm 1 m/S 742 mmHg 96%
    23:00 -6°C° 0.5 mm 1 m/S 742 mmHg 96%
    Mehr zeigen